OTB-3-GAZELLE

Last updated on Wed Sep 09 2026 00:02:55 GMT+0000 (Coordinated Universal Time)

1 54023U 22127A 26251.56359074 .00000093 00000+0 40934-4 0 9998 2 54023 98.4028 242.0301 0012069 300.5148 59.4850 14.42699738206381
UTC large
Height (km)
Speed (km/s)
/
Latitude / Longitude
Inclination (degrees)
Orbital Period (minutes)
Azimuth
Elevation
Range (km)
Doppler Factor

Next 0 passes for location: London (51.5072 / 0.1276)

No passes found over London.
OTB-3-GAZELLE